Location: Alladorf
(49.9620°N, 11.3790°E)
Time: 20:09:31
(UTC+00:00)

H-2A R/B - Pass Details

Date: 29 November 2020
Orbit: 529 x 651 km, 98.3° (Epoch: 24 January)

Event Time Altitude Azimuth Distance (km) Brightness Sun altitude
Rises 04:55:56 0° 20° (NNE) 2,712 6.0 -17.4°
Reaches altitude 10° 04:58:10 10° 29° (NNE) 1,804 5.1 -17.1°
Maximum altitude 05:01:50 39° 99° (E) 810 3.8 -16.5°
Drops below altitude 10° 05:05:25 10° 169° (S) 1,774 5.2 -15.9°
Sets 05:07:36 0° 177° (S) 2,660 6.1 -15.6°
